Temperature
9 9 9 9 9 9 9 9 9 9 9 9 9 9 9 9 9 9 9 9 9 9 9 9 10 10 10 10 10 9 9 9 9 9 9 10 10 10 10 10 10 10 10
8 9 9 9 9 9 9 9 9 9 9 9 9 9 9 9 9 9 9 9 9 9 9 9 9 9 9 9 9 9 9 9 9 9 9 9 9 9 10 10 10 10 10
8 8 8 8 8 8 8 8 8 8 8 8 8 8 8 8 8 8 8 8 8 8 8 8 8 8 8 9 9 9 8 8 8 8 8 8 8 9 9 9 9 9 9
7 7 7 7 7 8 8 8 8 8 8 8 8 8 8 8 8 8 8 8 8 8 8 8 8 8 8 8 8 8 8 8 8 8 8 8 8 8 8 8 9 9 9
7 7 7 7 7 7 7 7 7 7 7 7 7 7 7 7 7 7 7 7 7 7 7 7 7 7 7 7 7 7 7 7 7 7 7 7 7 8 8 8 8 8 8
6 6 6 6 6 6 6 6 6 6 6 6 6 6 6 6 6 7 7 7 7 7 7 7 7 7 7 7 7 7 7 7 7 7 7 7 7 7 7 7 7 8 8
6 6 6 6 6 6 6 6 6 6 6 6 6 6 6 6 6 6 6 6 6 6 6 6 6 6 6 6 6 6 6 6 6 6 6 7 6 7 7 7 7 6 7
6 6 5 5 5 5 5 5 5 5 5 5 5 5 5 5 5 5 5 5 6 6 6 6 6 6 6 6 6 6 6 6 6 6 6 6 6 6 6 6 6 6 6
5 5 5 4 4 4 4 4 4 4 4 4 4 4 4 4 4 5 5 5 5 5 5 5 5 5 5 5 5 5 5 5 5 5 5 5 6 6 6 6 5 5 5
4 4 4 4 4 4 4 4 4 4 4 4 4 4 4 4 4 4 4 4 4 4 5 5 5 5 5 5 5 5 5 5 5 5 5 5 5 5 5 5 5 5 5
3 3 3 3 3 3 3 3 3 3 3 3 3 3 3 3 3 3 3 4 4 4 4 4 4 4 4 4 4 4 4 4 4 4 4 4 4 4 4 4 4 4 4
3 3 3 2 2 2 2 2 2 2 2 2 2 2 2 2 2 2 3 3 3 3 3 3 3 3 3 4 4 4 3 3 3 3 3 4 4 4 4 4 4 4 4
2 2 2 2 2 2 2 2 2 2 2 1 1 1 1 1 2 2 2 2 2 2 2 2 2 3 3 3 3 3 3 3 3 3 3 3 3 3 3 3 3 3 3
1 1 1 1 1 1 1 1 1 1 1 1 1 1 1 1 1 1 1 1 1 1 2 2 2 2 2 2 2 2 2 2 2 2 2 2 3 3 3 3 3 3 3
1 1 1 0 0 0 0 0 0 0 0 -0 -0 -0 0 0 0 0 0 1 1 1 1 1 1 1 1 1 1 1 1 1 2 2 2 2 2 2 2 2 2 2 2
0 0 -0 -0 -0 -1 -1 -0 -0 -0 -1 -1 -0 -0 -0 -0 -0 -0 -0 -0 -0 0 -0 0 0 0 0 0 0 1 1 1 1 1 1 1 1 1 1 1 1 1 2
-0 -0 -1 -1 -1 -1 -1 -1 -1 -1 -1 -1 -1 -1 -1 -1 -1 -1 -1 -1 -1 -1 -1 -1 -1 -1 -0 -0 -0 -0 -0 0 0 0 1 1 1 1 1 1 1 1 1
-1 -1 -1 -1 -1 -1 -1 -1 -2 -2 -2 -2 -2 -2 -2 -2 -1 -1 -1 -1 -1 -1 -1 -1 -1 -1 -1 -1 -1 -1 -1 -1 -0 -0 -0 -0 -0 0 0 0 0 1 1
-1 -1 -1 -1 -1 -2 -2 -2 -2 -2 -2 -2 -2 -2 -2 -2 -2 -2 -2 -2 -2 -2 -2 -2 -2 -2 -2 -2 -1 -1 -1 -1 -1 -1 -1 -1 -1 -0 -0 -0 -0 -0 -0
-1 -1 -2 -2 -2 -2 -2 -2 -2 -2 -2 -3 -3 -2 -2 -2 -2 -2 -2 -2 -2 -2 -2 -2 -2 -2 -2 -2 -2 -2 -2 -2 -1 -1 -1 -1 -1 -1 -1 -1 -1 -1 -1
-2 -2 -2 -2 -2 -3 -3 -3 -3 -3 -3 -3 -3 -3 -3 -3 -2 -3 -3 -3 -3 -3 -3 -3 -3 -2 -2 -2 -2 -2 -2 -2 -2 -2 -2 -2 -2 -2 -2 -2 -2 -2 -2
-2 -2 -3 -3 -3 -3 -3 -3 -3 -3 -3 -3 -3 -3 -3 -3 -3 -3 -3 -3 -3 -3 -3 -3 -3 -3 -3 -3 -3 -3 -3 -3 -3 -2 -2 -2 -2 -2 -3 -3 -3 -3 -3
-3 -3 -3 -3 -3 -3 -4 -4 -4 -4 -4 -4 -4 -4 -4 -4 -4 -4 -4 -4 -4 -4 -4 -4 -4 -3 -3 -3 -3 -3 -3 -3 -3 -3 -3 -3 -3 -3 -3 -3 -3 -3 -3
-3 -3 -4 -4 -4 -4 -4 -4 -4 -4 -4 -4 -4 -4 -4 -4 -4 -4 -4 -4 -4 -4 -4 -4 -4 -4 -4 -4 -4 -4 -4 -4 -4 -4 -3 -3 -3 -4 -4 -3 -3 -4 -4
-4 -4 -4 -4 -4 -4 -4 -4 -4 -4 -4 -4 -4 -5 -5 -5 -5 -5 -5 -5 -5 -5 -5 -5 -5 -5 -5 -4 -4 -4 -4 -4 -4 -4 -4 -4 -4 -4 -4 -4 -4 -4 -4
-4 -4 -4 -5 -4 -4 -4 -4 -5 -5 -5 -5 -5 -5 -5 -5 -5 -5 -5 -5 -5 -5 -5 -5 -5 -5 -5 -5 -5 -5 -5 -5 -5 -4 -4 -4 -4 -4 -4 -4 -4 -4 -4
Wind_Speed
2 0 1 1 2 1 2 1 1 0 1 0 0 1 1 1 1 1 1 2 2 2 2 2 2 3 3 3 3 2 2 1 1 0 2 3 3 3 4 4 4 5 7
1 0 1 1 1 1 1 1 1 0 0 0 1 1 1 1 1 1 1 2 2 2 2 2 3 3 2 3 3 3 2 1 1 2 1 2 3 3 4 3 4 5 5
4 2 0 0 1 1 0 0 0 0 0 0 0 1 1 1 0 1 1 2 2 2 2 3 3 3 3 4 4 4 4 3 2 2 2 2 3 2 2 3 4 4 4
4 3 1 0 0 1 0 1 1 1 1 0 1 1 1 2 2 2 2 2 2 3 3 3 3 4 4 4 4 4 3 4 3 3 2 2 2 2 2 2 3 4 5
5 4 3 3 1 1 0 1 1 1 1 1 1 1 2 2 2 2 2 2 3 3 3 3 3 3 4 4 4 4 4 4 4 3 2 2 2 2 2 4 3 3 4
4 3 2 2 1 1 1 1 2 2 1 1 1 1 2 2 2 2 3 2 2 2 3 3 3 4 3 4 4 5 5 5 4 4 3 3 2 3 3 4 4 5 4
4 3 2 1 1 0 1 1 1 2 2 1 1 1 2 2 3 3 3 3 2 2 3 3 4 4 4 4 4 4 4 5 5 5 4 4 4 3 3 3 3 4 4
4 4 3 2 1 1 1 1 1 2 2 2 2 2 2 2 2 3 3 3 3 3 3 3 4 4 4 4 4 3 4 4 5 5 5 4 4 3 3 3 3 3 4
2 2 1 1 0 0 1 1 1 1 2 2 2 2 2 2 2 2 2 2 3 3 3 3 3 4 4 4 4 4 4 4 4 5 5 4 4 3 4 3 4 4 5
1 1 1 0 1 1 1 1 1 1 2 2 2 2 2 2 2 2 3 3 3 3 3 3 3 3 4 4 4 4 4 5 5 4 5 5 4 4 4 4 4 5 6
2 2 1 1 1 1 1 2 2 2 2 2 2 2 2 2 2 2 3 3 3 3 3 3 3 3 4 4 4 4 4 5 5 5 5 6 5 4 4 4 4 5 5
1 1 1 0 1 2 2 2 2 2 2 2 2 2 2 2 2 3 3 3 2 2 2 2 3 3 4 3 4 5 5 5 6 6 6 6 5 5 5 4 5 5 5
0 0 0 1 2 2 2 3 2 3 3 3 3 3 3 2 2 2 3 3 2 2 2 2 2 3 3 3 4 4 4 5 6 6 6 6 6 7 5 6 6 5 5
1 1 1 1 2 2 2 3 3 3 3 3 3 3 3 3 3 3 2 3 3 3 3 3 3 3 4 4 4 4 4 4 5 5 5 6 6 7 6 6 6 5 5
1 2 1 1 2 2 3 3 3 3 3 3 3 4 4 3 3 3 3 3 3 3 3 3 4 4 4 4 5 5 5 5 5 5 5 6 7 8 7 6 6 5 5
3 3 2 2 2 2 3 3 4 4 3 3 4 4 4 3 3 3 3 3 3 3 3 4 4 4 5 7 8 6 4 4 5 5 5 6 6 7 8 8 7 6 6
4 4 3 3 3 3 3 3 4 4 4 4 4 4 4 4 4 4 3 3 3 3 3 4 4 5 6 8 8 7 4 4 5 5 5 5 5 6 5 6 7 6 8
4 3 3 4 3 3 3 3 3 3 4 4 5 5 4 5 4 4 4 4 3 3 4 4 5 5 7 9 9 7 4 4 5 5 5 5 5 5 5 4 4 4 5
4 4 4 3 3 3 3 3 4 4 4 4 5 5 5 5 5 4 4 4 3 3 4 4 5 5 7 8 8 7 4 4 5 5 5 5 5 7 7 4 4 4 5
2 2 2 2 3 3 3 3 4 4 4 5 5 5 5 4 4 4 4 4 3 4 4 5 5 5 6 8 8 7 4 4 4 4 5 6 7 8 7 5 4 5 5
2 2 2 2 3 3 2 3 4 5 5 5 5 5 4 4 4 4 3 3 4 4 4 5 5 5 6 7 8 7 4 4 4 4 4 5 8 8 8 6 5 7 5
2 1 2 3 3 3 2 3 5 5 5 4 4 4 4 4 3 3 3 3 3 4 4 4 5 4 5 6 6 7 7 6 5 5 4 5 7 7 8 7 7 7 5
2 2 2 3 4 3 3 4 5 5 4 4 4 4 4 4 4 3 3 3 3 3 4 4 4 5 4 4 6 7 7 7 5 4 5 6 6 6 6 7 7 5 3
2 2 2 3 4 4 4 4 5 4 4 4 4 4 4 4 3 3 3 3 3 4 4 4 4 4 4 4 4 4 4 5 5 4 4 5 5 4 5 5 4 3 3
2 2 2 3 5 5 4 4 4 3 3 4 4 4 4 4 3 4 4 4 4 5 5 4 4 4 5 5 7 5 4 3 3 3 2 2 2 3 3 3 2 2 2
2 2 3 4 4 4 5 5 4 3 3 4 4 3 3 3 3 3 4 6 6 8 8 7 6 6 7 8 8 8 7 7 5 3 2 3 3 4 4 3 3 2 2
Wind_Direction
242 182 78 68 71 71 88 121 113 44 92 84 166 205 225 221 220 216 195 187 179 176 179 183 189 184 189 191 184 182 173 195 168 127 307 295 272 255 234 215 203 206 207
270 343 55 55 75 100 97 101 129 182 196 242 240 221 220 215 223 246 268 230 204 197 202 189 206 203 194 186 185 172 179 210 185 159 179 287 299 277 249 227 213 213 205
200 212 226 44 84 94 297 308 294 248 270 296 53 34 52 33 274 246 237 256 241 227 221 211 205 207 199 201 201 191 186 204 224 202 184 199 235 281 278 241 225 215 210
198 195 191 139 157 249 331 5 350 334 335 63 157 187 220 247 239 230 229 259 253 246 234 229 221 212 211 208 208 207 208 195 213 234 241 231 194 208 267 283 253 229 223
200 199 198 196 195 186 53 5 1 358 349 344 228 215 233 243 262 270 236 236 248 247 237 233 227 224 223 216 212 212 214 209 210 209 218 234 249 218 219 260 276 266 240
205 200 191 160 149 77 49 25 16 340 333 326 273 227 233 236 239 260 250 243 245 250 248 239 227 226 229 224 224 220 217 219 219 219 211 207 212 216 212 237 256 265 259
194 187 174 162 159 74 5 355 359 332 329 334 309 274 252 236 228 237 246 250 250 252 242 245 231 228 227 232 230 225 229 223 221 222 229 229 233 220 213 223 247 262 274
198 191 184 172 195 221 268 300 314 306 320 326 314 301 279 253 245 242 241 248 248 249 246 245 241 235 229 234 227 229 233 232 225 228 228 236 239 227 226 213 215 259 270
193 178 160 132 138 287 280 269 273 284 297 300 302 298 299 282 272 264 245 250 255 259 247 240 246 247 238 230 224 229 230 231 231 232 233 237 244 239 240 232 216 217 250
186 185 178 248 307 303 308 314 307 281 289 299 295 304 296 284 271 267 259 256 258 262 255 245 241 246 245 237 227 231 231 230 236 234 234 240 244 243 237 235 236 227 231
197 202 225 270 301 329 344 348 343 338 327 318 310 305 300 301 300 286 275 262 259 254 250 254 251 250 249 244 237 235 231 232 241 242 238 242 242 244 246 242 242 238 232
201 206 208 280 342 332 331 332 332 336 325 323 319 310 306 310 310 301 294 281 269 270 260 258 266 267 265 257 247 243 241 241 244 245 241 244 245 243 243 240 242 244 238
152 94 359 347 328 327 328 321 322 324 329 330 328 318 310 309 300 295 300 296 281 275 275 263 267 270 275 276 265 252 252 255 254 250 245 248 243 246 245 242 243 246 248
207 223 278 308 319 327 331 330 325 326 327 328 320 312 303 295 287 287 291 290 286 278 275 268 261 263 265 266 263 259 257 257 258 256 252 253 248 248 248 249 246 246 247
264 250 260 289 309 325 329 326 322 322 323 323 314 305 303 302 302 297 290 286 288 287 279 272 267 264 264 261 259 254 254 252 258 262 260 260 261 259 255 254 246 239 241
257 261 272 287 293 298 305 313 314 316 319 314 308 308 309 310 308 302 295 292 290 289 285 277 270 268 268 276 277 272 260 260 260 264 267 270 270 270 270 269 265 251 243
251 259 266 264 269 273 283 292 301 308 310 306 306 306 303 304 301 300 297 286 284 287 287 285 281 276 279 284 285 280 265 259 263 265 267 273 276 275 268 273 277 277 272
250 260 265 272 278 281 287 291 298 299 298 300 301 302 300 296 296 294 290 285 284 285 284 285 283 283 283 284 283 282 268 260 260 259 258 261 270 268 265 262 265 266 270
244 250 251 261 277 282 282 290 297 296 294 292 292 292 292 289 291 290 288 290 291 290 286 284 279 279 284 285 279 279 260 260 263 261 258 257 259 270 272 263 263 274 278
258 265 274 275 273 280 283 285 290 293 290 289 288 286 284 284 282 281 284 291 290 285 284 284 281 277 280 289 285 277 255 257 262 264 262 266 266 273 269 252 252 263 272
281 282 284 274 272 280 281 278 282 281 287 295 297 296 292 286 282 285 285 289 291 292 290 289 291 286 285 291 287 278 260 257 261 265 265 265 273 277 274 264 254 261 270
300 295 290 290 290 282 273 278 280 287 297 302 302 302 299 294 297 296 299 294 289 289 292 295 297 293 290 293 288 287 281 274 262 265 266 267 279 280 280 273 271 273 278
270 278 275 294 300 291 273 273 287 301 304 305 304 302 302 302 300 293 294 298 291 285 287 287 289 295 298 302 308 303 296 290 276 268 274 283 286 285 281 280 278 272 261
273 280 287 296 299 300 293 282 292 301 300 298 302 305 304 304 303 299 292 289 287 283 281 281 285 293 298 298 299 295 294 295 289 284 289 296 293 284 285 292 290 274 258
279 274 269 279 291 300 302 303 302 301 299 297 299 301 301 295 296 296 286 282 273 271 275 273 273 281 287 291 299 298 289 280 274 285 289 293 290 283 280 278 281 280 273
273 278 278 283 293 300 302 304 303 300 298 302 302 297 296 292 291 295 301 294 288 293 290 282 277 276 279 290 295 297 298 297 293 286 270 274 275 273 274 271 272 274 268
Height
1501 1502 1502 1502 1503 1503 1503 1504 1504 1504 1505 1506 1506 1506 1507 1508 1509 1509 1510 1511 1512 1513 1514 1514 1515 1516 1516 1517 1518 1519 1519 1520 1521 1522 1522 1522 1523 1523 1524 1525 1525 1526 1527
1498 1498 1499 1499 1500 1500 1500 1501 1501 1501 1502 1502 1503 1503 1504 1504 1505 1506 1507 1508 1509 1509 1510 1510 1511 1512 1513 1513 1514 1515 1516 1516 1517 1518 1518 1518 1520 1519 1520 1520 1521 1522 1523
1495 1496 1496 1496 1497 1497 1498 1498 1498 1499 1499 1499 1500 1500 1500 1501 1502 1502 1503 1504 1505 1505 1506 1507 1507 1508 1509 1509 1510 1511 1512 1513 1514 1515 1516 1516 1515 1515 1515 1515 1516 1517 1518
1492 1493 1493 1494 1494 1494 1495 1495 1496 1496 1496 1496 1496 1496 1496 1496 1497 1498 1499 1500 1501 1501 1502 1503 1503 1504 1504 1505 1506 1507 1508 1509 1510 1511 1512 1513 1512 1512 1511 1511 1512 1512 1513
1489 1490 1491 1491 1492 1492 1492 1493 1493 1493 1493 1493 1493 1493 1493 1493 1494 1494 1495 1496 1496 1497 1498 1498 1499 1500 1500 1501 1501 1502 1504 1504 1505 1506 1507 1508 1508 1508 1508 1507 1507 1508 1508
1487 1488 1489 1489 1489 1489 1489 1489 1490 1490 1490 1490 1490 1489 1490 1490 1490 1490 1491 1491 1492 1493 1494 1494 1495 1495 1496 1496 1497 1498 1499 1500 1501 1502 1502 1503 1503 1503 1504 1503 1502 1502 1503
1484 1485 1486 1486 1486 1486 1486 1486 1486 1486 1486 1486 1486 1486 1486 1486 1486 1486 1487 1487 1488 1488 1489 1490 1490 1491 1491 1492 1493 1494 1494 1495 1496 1497 1497 1498 1498 1499 1499 1499 1499 1498 1497
1482 1482 1483 1484 1484 1484 1484 1484 1483 1483 1483 1483 1483 1483 1483 1483 1483 1483 1483 1483 1484 1484 1485 1485 1485 1486 1486 1487 1488 1489 1489 1490 1491 1491 1492 1493 1493 1494 1494 1495 1495 1493 1492
1480 1480 1481 1481 1481 1481 1481 1481 1480 1480 1480 1480 1480 1479 1479 1479 1479 1479 1479 1479 1480 1480 1481 1481 1481 1481 1482 1482 1483 1484 1484 1485 1485 1486 1486 1487 1488 1488 1489 1490 1490 1490 1488
1478 1479 1479 1479 1479 1479 1479 1478 1478 1477 1477 1477 1476 1476 1476 1475 1475 1475 1475 1475 1476 1476 1476 1476 1476 1476 1477 1477 1478 1478 1479 1480 1480 1481 1481 1481 1482 1482 1483 1484 1484 1484 1484
1476 1477 1477 1477 1477 1477 1476 1476 1475 1474 1474 1473 1473 1472 1472 1471 1471 1471 1471 1471 1471 1471 1471 1471 1471 1472 1472 1472 1473 1473 1474 1474 1475 1475 1476 1476 1477 1477 1477 1477 1477 1478 1478
1475 1475 1476 1475 1475 1474 1474 1473 1472 1472 1471 1470 1470 1469 1468 1468 1467 1467 1467 1467 1467 1467 1466 1466 1466 1466 1467 1467 1467 1468 1468 1469 1469 1470 1470 1470 1471 1471 1471 1471 1471 1471 1471
1474 1474 1474 1474 1473 1472 1472 1471 1470 1469 1468 1468 1467 1466 1465 1464 1464 1463 1463 1463 1462 1462 1462 1462 1462 1462 1462 1462 1462 1463 1463 1463 1464 1464 1464 1464 1465 1465 1465 1465 1465 1465 1465
1472 1472 1472 1471 1471 1470 1469 1468 1468 1467 1466 1465 1463 1462 1462 1461 1460 1460 1459 1459 1459 1458 1458 1458 1458 1458 1458 1458 1458 1458 1458 1458 1458 1458 1459 1459 1459 1459 1459 1459 1459 1459 1459
1470 1470 1469 1469 1469 1468 1467 1466 1465 1464 1463 1461 1460 1459 1459 1458 1457 1456 1456 1455 1455 1454 1454 1454 1454 1454 1454 1454 1454 1454 1454 1453 1453 1453 1453 1454 1454 1454 1454 1454 1453 1453 1452
1468 1468 1467 1467 1466 1465 1464 1463 1462 1461 1459 1458 1457 1456 1455 1455 1454 1453 1452 1452 1451 1451 1450 1450 1449 1449 1449 1449 1450 1449 1449 1448 1448 1448 1448 1448 1448 1448 1448 1448 1448 1448 1447
1466 1465 1464 1464 1463 1462 1461 1460 1458 1457 1456 1455 1454 1453 1452 1451 1451 1450 1449 1448 1448 1447 1447 1446 1445 1445 1445 1445 1445 1444 1444 1444 1443 1443 1443 1443 1442 1443 1442 1442 1441 1441 1442
1463 1462 1462 1461 1460 1459 1458 1457 1456 1454 1453 1452 1451 1450 1449 1448 1447 1446 1446 1445 1444 1444 1443 1442 1441 1441 1440 1440 1440 1440 1439 1438 1438 1438 1438 1437 1437 1437 1437 1437 1436 1436 1436
1460 1459 1459 1458 1457 1456 1455 1454 1452 1451 1450 1448 1447 1447 1446 1445 1444 1443 1442 1441 1441 1440 1439 1438 1437 1436 1436 1435 1435 1435 1434 1433 1433 1433 1433 1433 1432 1432 1433 1432 1430 1430 1430
1457 1456 1455 1455 1454 1453 1452 1450 1449 1447 1446 1445 1444 1443 1442 1441 1441 1440 1439 1438 1437 1436 1435 1434 1433 1432 1431 1431 1430 1430 1429 1428 1428 1428 1428 1428 1428 1428 1427 1427 1426 1425 1425
1454 1453 1452 1451 1450 1450 1448 1447 1445 1444 1443 1442 1441 1440 1439 1438 1437 1436 1435 1434 1433 1432 1431 1430 1429 1428 1427 1426 1425 1425 1424 1423 1423 1422 1422 1422 1423 1423 1422 1422 1421 1421 1421
1450 1450 1449 1448 1447 1446 1445 1443 1442 1441 1440 1439 1438 1436 1435 1434 1433 1432 1431 1430 1429 1428 1427 1425 1424 1423 1422 1421 1420 1420 1420 1419 1419 1418 1418 1418 1418 1418 1417 1417 1417 1417 1417
1448 1447 1446 1445 1444 1443 1442 1440 1439 1438 1437 1435 1434 1433 1432 1431 1430 1429 1428 1427 1425 1424 1423 1422 1420 1419 1418 1417 1417 1416 1415 1415 1414 1414 1414 1414 1413 1413 1413 1413 1412 1412 1412
1445 1444 1443 1442 1441 1440 1439 1438 1436 1435 1434 1432 1431 1430 1429 1427 1426 1425 1424 1423 1421 1420 1419 1418 1416 1415 1414 1413 1413 1412 1411 1411 1410 1410 1409 1409 1409 1409 1408 1408 1408 1407 1407
1443 1442 1441 1439 1438 1437 1436 1435 1433 1432 1430 1429 1428 1426 1426 1424 1423 1422 1420 1419 1418 1417 1416 1414 1413 1411 1410 1410 1409 1408 1407 1407 1407 1406 1405 1405 1405 1404 1404 1404 1403 1403 1404
1440 1439 1438 1437 1436 1434 1433 1432 1430 1429 1427 1425 1424 1423 1422 1421 1420 1418 1417 1415 1415 1413 1412 1411 1409 1408 1407 1406 1406 1405 1404 1404 1403 1403 1402 1401 1401 1401 1400 1400 1400 1400 1400